Tracking 23114 objects as of 16-May-2021
HD Live streaming from Space Station
objects crossing your sky now

ONEWEB-0192

Track ONEWEB-0192 now!
10-day predictions
ONEWEB-0192 is classified as:


NORAD ID: 48222
Int'l Code: 2021-031N
Perigee: 506.4 km
Apogee: 515.7 km
Inclination: 87.4 °
Period: 94.7 minutes
Semi major axis: 6882 km
RCS: Unknown
Launch date: April 25, 2021
Source: United Kingdom (UK)
Launch site: VOSTOCHNY COSMODROME (VOSTO)
aabbcc
Your satellite tracking list
Your tracking list is empty




NASA's NSSDC Master Catalog

Two Line Element Set (TLE):
1 48222U 21031N   21136.58334491 -.01487316  00000-0 -74149-1 0  9993
2 48222  87.4062 305.8762 0006754 174.1519 223.9031 15.20645060  1783
Source of the keplerian elements: AFSPC